Find GalileoSat-22

NORAD ID: 43058 Int'l Des: 2017-079 Owner: GSAEU Country: I-EU Constellation: Galileo operational
MEOCIRCULAR

リアルタイム位置

3D地球を読み込み中...

GalileoSat-22について

説明を読み込み中...

次回通過

Passes for default location (London). Set your location on the main map for personalized predictions.

高度履歴

Loading altitude history...

軌道要素

1 43058U 17079D 26131.79295676 .00000007 00000-0 00000-0 0 9995
2 43058 55.0820 222.5037 0004815 272.5122 87.4694 1.70474650 52393
Epoch: May 11, 2026 • Age: 32 hours

現在のステータス

高度 23243.2 km
速度 3.67 km/s
衛星直下点 52.10°N, 58.13°E
打ち上げ日 Dec 12, 2017
運用期間 8.4 years
タイプ navigation

技術仕様

分類 Payload
質量 715.00 kg
乾燥質量 700.00 kg
総質量 715.00 kg
長さ 2.70 m
直径 1.60 m
スパン 14.70 m
形状 Box+2 pan
製造者 OHB
バスタイプ GalileoSat
フェーズステータス In Orbit
所有者/国 GSAEU/I-EU

Most Searched